EW1440 Weather Reports


time (UTC)temp
C
wind
direction
speed
KPH
gust
KPH
rain 1hr
cm
rain 24hr
cm
rain mn
cm
humidity
%
barometer
mb
20260506134548 23 114 8.0 14.5 0.00 0.00 0.00 92 1009.3
20260506134035 23 115 3.2 12.9 0.00 0.00 0.00 92 1009.1
20260506133535 23 119 4.8 14.5 0.00 0.00 0.00 92 1009.0
20260506133045 23 130 6.4 14.5 0.00 0.00 0.00 92 1009.0
20260506132534 23 135 4.8 11.3 0.00 0.00 0.00 92 1008.9
20260506132034 23 145 6.4 11.3 0.00 0.00 0.00 92 1009.0
20260506131548 23 126 4.8 11.3 0.00 0.00 0.00 92 1009.1
20260506131036 23 150 3.2 12.9 0.00 0.00 0.00 92 1008.9
20260506130534 23 124 3.2 16.1 0.00 0.00 0.00 92 1008.8
20260506130052 23 138 8.0 16.1 0.00 0.00 0.00 92 1008.8
20260506125535 23 147 6.4 12.9 0.00 0.00 0.00 92 1008.7
20260506125033 23 154 6.4 12.9 0.00 0.00 0.00 92 1008.6
20260506124545 23 136 6.4 12.9 0.00 0.00 0.00 92 1008.7
20260506124033 23 124 4.8 12.9 0.00 0.00 0.00 92 1008.7
20260506123533 23 139 4.8 12.9 0.00 0.00 0.00 92 1008.6
20260506123042 23 121 6.4 12.9 0.00 0.00 0.00 92 1008.7
20260506122533 23 86 6.4 12.9 0.00 0.00 0.00 92 1008.7
20260506122033 23 129 3.2 9.7 0.00 0.00 0.00 92 1008.7
20260506121549 23 127 3.2 8.0 0.00 0.00 0.00 92 1008.7
20260506121034 23 114 1.6 6.4 0.00 0.00 0.00 91 1008.7
20260506120534 23 89 3.2 12.9 0.00 0.00 0.00 91 1008.7
20260506120106 23 172 4.8 12.9 0.00 0.00 0.00 91 1008.7
20260506115534 23 103 4.8 11.3 0.00 0.00 0.00 91 1008.6
20260506115033 23 114 4.8 11.3 0.00 0.00 0.00 91 1008.6
20260506114558 23 109 3.2 8.0 0.00 0.00 0.00 91 1008.5
20260506114033 23 120 1.6 8.0 0.00 0.00 0.00 91 1008.6
20260506113533 23 124 3.2 8.0 0.00 0.00 0.00 91 1008.6
20260506113046 23 119 3.2 8.0 0.00 0.00 0.00 91 1008.6
20260506112535 23 116 1.6 8.0 0.00 0.00 0.00 91 1008.6
20260506112034 23 126 3.2 8.0 0.00 0.00 0.00 91 1008.6
20260506111553 23 99 3.2 6.4 0.00 0.00 0.00 91 1008.6
20260506111033 23 63 0.0 4.8 0.00 0.00 0.00 91 1008.6
20260506110534 23 63 1.6 4.8 0.00 0.00 0.00 91 1008.6
20260506110051 23 0 0.0 4.8 0.00 0.00 0.00 91 1008.7
20260506105532 23 0 1.6 4.8 0.00 0.00 0.00 91 1008.7
20260506105036 23 122 0.0 8.0 0.00 0.00 0.00 91 1008.6
20260506104547 23 122 1.6 8.0 0.00 0.00 0.00 91 1008.7
20260506104034 23 0 1.6 8.0 0.00 0.00 0.00 91 1008.6
20260506103534 23 99 1.6 4.8 0.00 0.00 0.00 91 1008.5
20260506103047 23 99 0.0 6.4 0.00 0.00 0.00 91 1008.4
20260506102535 23 99 1.6 9.7 0.00 0.00 0.00 91 1008.4
20260506102034 23 0 1.6 9.7 0.00 0.00 0.00 91 1008.4
20260506101547 23 86 3.2 14.5 0.00 0.00 0.00 91 1008.6
20260506101033 23 120 3.2 16.1 0.00 0.00 0.00 91 1008.4
20260506100533 23 146 4.8 16.1 0.00 0.00 0.00 90 1008.2
20260506100051 23 153 8.0 16.1 0.00 0.00 0.00 91 1008.2
20260506095532 23 149 6.4 12.9 0.00 0.00 0.00 91 1008.2
20260506095034 23 134 6.4 12.9 0.00 0.00 0.00 91 1008.2
20260506094547 23 154 1.6 9.7 0.00 0.00 0.00 90 1008.4
20260506094034 23 108 4.8 12.9 0.00 0.00 0.00 90 1008.4
20260506093537 23 130 3.2 14.5 0.00 0.00 0.00 90 1008.5
20260506093105 23 119 6.4 19.3 0.00 0.00 0.00 90 1008.5
20260506092534 23 148 8.0 22.5 0.00 0.00 0.00 90 1008.5
20260506092034 23 154 11.3 22.5 0.00 0.00 0.00 90 1008.3
20260506091549 23 142 9.7 17.7 0.00 0.00 0.00 90 1008.4
20260506091034 23 163 9.7 17.7 0.00 0.00 0.00 90 1008.4
20260506090533 23 148 6.4 14.5 0.00 0.00 0.00 90 1008.4
20260506090055 23 155 6.4 16.1 0.00 0.00 0.00 90 1008.5
20260506085533 23 141 4.8 19.3 0.00 0.00 0.00 90 1008.4
20260506085034 23 137 11.3 19.3 0.00 0.00 0.00 89 1008.4
20260506084547 23 116 8.0 16.1 0.00 0.00 0.00 89 1008.5
20260506084038 23 113 4.8 14.5 0.00 0.00 0.00 89 1008.5
20260506083534 23 123 4.8 14.5 0.00 0.00 0.00 89 1008.5
20260506083047 23 111 6.4 12.9 0.00 0.00 0.00 89 1008.5
20260506082534 23 134 6.4 14.5 0.00 0.00 0.00 89 1008.6
20260506082034 23 116 4.8 14.5 0.00 0.00 0.00 89 1008.5
20260506081544 23 137 6.4 14.5 0.00 0.00 0.00 89 1008.6
20260506081042 23 159 8.0 19.3 0.00 0.00 0.00 89 1008.6
20260506080534 23 160 8.0 19.3 0.00 0.00 0.00 89 1008.7
20260506073053 23 151 9.7 24.1 0.00 0.00 0.00 89 1008.7
20260506072535 23 116 8.0 24.1 0.00 0.00 0.00 89 1008.7
20260506072033 23 159 12.9 22.5 0.00 0.00 0.00 89 1008.7
20260506071548 23 118 6.4 22.5 0.00 0.00 0.00 89 1008.8
20260506071033 23 122 11.3 22.5 0.00 0.00 0.00 89 1008.7
20260506070535 23 128 8.0 22.5 0.00 0.00 0.00 89 1008.7
20260506062034 23 118 12.9 24.1 0.00 0.00 0.00 90 1008.9
20260506061559 23 153 9.7 24.1 0.00 0.00 0.00 90 1008.9
20260506061034 23 130 11.3 24.1 0.00 0.00 0.00 90 1008.8
20260506060533 23 139 9.7 20.9 0.00 0.00 0.00 90 1008.9
20260506051033 24 130 11.3 20.9 0.00 0.00 0.00 88 1008.7
20260506050534 24 172 11.3 24.1 0.00 0.00 0.00 87 1008.6
20260506045033 24 147 11.3 19.3 0.00 0.00 0.00 87 1008.6
20260506044551 24 135 9.7 19.3 0.00 0.00 0.00 87 1008.6
20260506044033 24 115 11.3 20.9 0.00 0.00 0.00 86 1008.7
20260506043533 25 149 12.9 20.9 0.00 0.00 0.00 86 1008.6
20260506043052 25 143 11.3 22.5 0.00 0.00 0.00 86 1008.6
20260506042534 25 120 11.3 22.5 0.00 0.00 0.00 86 1008.6
20260506042034 25 171 9.7 22.5 0.00 0.00 0.00 86 1008.4
20260506041603 25 151 12.9 25.7 0.00 0.00 0.00 85 1008.4
20260506041034 25 138 11.3 25.7 0.00 0.00 0.00 85 1008.4
20260506040536 25 145 14.5 22.5 0.00 0.00 0.00 85 1008.3
20260506040049 25 131 14.5 25.7 0.00 0.00 0.00 85 1008.2
20260506035533 25 114 11.3 25.7 0.00 0.00 0.00 84 1008.2
20260506035033 25 147 14.5 24.1 0.00 0.00 0.00 84 1008.0
20260506034548 25 132 12.9 24.1 0.00 0.00 0.00 84 1008.1
20260506034033 25 105 11.3 24.1 0.00 0.00 0.00 83 1008.0
20260506033533 25 141 12.9 29.0 0.00 0.00 0.00 83 1008.0
20260506033052 25 149 14.5 29.0 0.00 0.00 0.00 83 1008.0
20260506032533 26 94 16.1 27.4 0.00 0.00 0.00 82 1007.8
20260506032034 26 133 14.5 25.7 0.00 0.00 0.00 82 1007.8
20260506031547 26 151 11.3 27.4 0.00 0.00 0.00 82 1007.8
20260506031036 26 111 12.9 27.4 0.00 0.00 0.00 82 1007.7
20260506030534 26 124 12.9 25.7 0.00 0.00 0.00 81 1007.7
20260506030047 26 112 9.7 19.3 0.00 0.00 0.00 81 1007.7
20260506025534 26 138 11.3 19.3 0.00 0.00 0.00 81 1007.7
20260506025033 26 109 9.7 19.3 0.00 0.00 0.00 80 1007.5
20260506024546 26 111 8.0 19.3 0.00 0.00 0.00 80 1007.4
20260506024033 26 113 6.4 22.5 0.00 0.00 0.00 80 1007.5
20260506023534 26 133 8.0 22.5 0.00 0.00 0.00 79 1007.3
20260506023052 26 95 9.7 20.9 0.00 0.00 0.00 79 1007.1
20260506022534 26 119 9.7 19.3 0.00 0.00 0.00 79 1007.1
20260506022033 26 119 9.7 19.3 0.00 0.00 0.00 79 1007.0
20260506021548 26 130 9.7 17.7 0.00 0.00 0.00 79 1006.9
20260506021037 26 127 9.7 16.1 0.00 0.00 0.00 78 1006.8
20260506020532 26 81 8.0 14.5 0.00 0.00 0.00 79 1006.8
20260506020115 27 113 4.8 8.0 0.00 0.00 0.00 78 1006.8
20260506015536 27 106 3.2 6.4 0.00 0.00 0.00 78 1006.8
20260506015034 27 118 1.6 6.4 0.00 0.00 0.00 77 1006.6
20260506014547 27 95 1.6 6.4 0.00 0.00 0.00 77 1006.5
20260506014033 27 91 3.2 6.4 0.00 0.00 0.00 77 1006.4
20260506013534 27 54 0.0 4.8 0.00 0.00 0.00 76 1006.3
20260506013046 27 54 0.0 4.8 0.00 0.00 0.00 75 1006.3
20260506012534 27 0 0.0 6.4 0.00 0.00 0.00 74 1006.0
20260506012035 28 0 3.2 6.4 0.00 0.00 0.00 74 1006.0
20260506011549 28 15 1.6 6.4 0.00 0.00 0.00 73 1006.0
20260506011035 28 51 3.2 8.0 0.00 0.00 0.00 73 1005.9
20260506010533 28 47 3.2 8.0 0.00 0.00 0.00 73 1005.9
20260506010050 28 51 1.6 4.8 0.00 0.00 0.00 72 1005.8
20260506005534 28 360 1.6 4.8 0.00 0.00 0.00 73 1005.7
20260506005033 28 116 1.6 6.4 0.00 0.00 0.00 72 1005.7
20260506004548 28 114 1.6 6.4 0.00 0.00 0.00 72 1005.7
20260506004034 28 105 1.6 6.4 0.00 0.00 0.00 72 1005.7
20260506003533 28 67 1.6 6.4 0.00 0.00 0.00 72 1005.8
20260506003048 28 93 1.6 6.4 0.00 0.00 0.00 72 1005.7
20260506002533 28 116 1.6 11.3 0.00 0.00 0.00 71 1005.7
20260506002033 28 110 3.2 11.3 0.00 0.00 0.00 71 1005.8
20260506001556 28 116 6.4 11.3 0.00 0.00 0.00 71 1005.7
20260506001034 28 59 1.6 9.7 0.00 0.00 0.00 70 1005.8
20260506000534 29 78 4.8 9.7 0.00 0.00 0.00 70 1005.7
20260506000106 29 92 3.2 11.3 0.00 0.00 0.00 68 1005.8
20260505235537 29 87 3.2 11.3 0.00 0.00 0.00 67 1005.7
20260505235035 29 115 4.8 14.5 0.00 0.00 0.00 69 1005.7
20260505234546 29 108 8.0 14.5 0.00 0.00 0.00 69 1005.6
20260505234034 29 78 8.0 16.1 0.00 0.00 0.00 69 1005.6
20260505233533 30 168 6.4 16.1 0.00 0.00 0.00 67 1005.6
20260505233055 30 114 3.2 9.7 0.00 0.00 0.00 66 1005.6
20260505232537 30 114 1.6 6.4 0.00 0.00 0.00 68 1005.6
20260505232033 30 0 1.6 8.0 0.00 0.00 0.00 66 1005.6
20260505231556 30 114 1.6 11.3 0.00 0.00 0.00 68 1005.6
20260505231034 29 111 1.6 12.9 0.00 0.00 0.00 68 1005.6
20260505230533 30 135 4.8 12.9 0.00 0.00 0.00 67 1005.7
20260505230051 29 116 3.2 9.7 0.00 0.00 0.00 69 1005.6
20260505225609 29 90 4.8 14.5 0.00 0.00 0.00 70 1005.8
20260505225033 30 74 3.2 14.5 0.00 0.00 0.00 68 1005.8
20260505224550 30 85 3.2 12.9 0.00 0.00 0.00 67 1005.8
20260505224031 30 132 3.2 16.1 0.00 0.00 0.00 66 1005.8
20260505223533 30 106 6.4 16.1 0.00 0.00 0.00 67 1005.7
20260505223047 30 118 9.7 16.1 0.00 0.00 0.00 67 1005.7
20260505222537 30 118 6.4 16.1 0.00 0.00 0.00 66 1005.6
20260505222038 30 4 4.8 16.1 0.00 0.00 0.00 68 1005.6
20260505221551 30 103 3.2 17.7 0.00 0.00 0.00 67 1005.7
20260505221033 30 0 4.8 17.7 0.00 0.00 0.00 69 1005.7
20260505220531 30 128 9.7 19.3 0.00 0.00 0.00 68 1005.8
20260505215534 31 141 8.0 17.7 0.00 0.00 0.00 67 1005.8
20260505215035 31 91 8.0 17.7 0.00 0.00 0.00 66 1005.9
20260505214554 30 154 6.4 17.7 0.00 0.00 0.00 65 1005.9
20260505214035 30 196 8.0 22.5 0.00 0.00 0.00 65 1006.2
20260505213534 30 178 11.3 24.1 0.00 0.00 0.00 65 1006.2
20260505213047 30 183 8.0 24.1 0.00 0.00 0.00 68 1006.2
20260505212534 30 141 9.7 22.5 0.00 0.00 0.00 69 1006.3
20260505212035 30 187 8.0 25.7 0.00 0.00 0.00 68 1006.4
20260505211614 30 143 8.0 27.4 0.00 0.00 0.00 68 1006.4
20260505211035 30 128 14.5 27.4 0.00 0.00 0.00 66 1006.5
20260505210534 29 144 6.4 16.1 0.00 0.00 0.00 67 1006.6
20260505210047 29 172 6.4 16.1 0.00 0.00 0.00 68 1006.6
20260505205534 29 141 6.4 16.1 0.00 0.00 0.00 69 1006.8
20260505205036 29 141 4.8 14.5 0.00 0.00 0.00 67 1007.0
20260505204557 29 148 4.8 17.7 0.00 0.00 0.00 67 1007.1
20260505204032 29 213 6.4 19.3 0.00 0.00 0.00 68 1007.2
20260505203531 29 193 6.4 19.3 0.00 0.00 0.00 69 1007.3
20260505203043 29 187 8.0 22.5 0.00 0.00 0.00 70 1007.3
20260505202535 29 177 3.2 22.5 0.00 0.00 0.00 69 1007.4
20260505202033 28 129 14.5 22.5 0.00 0.00 0.00 68 1007.5
20260505201542 29 239 8.0 16.1 0.00 0.00 0.00 68 1007.7
20260505201034 29 184 8.0 17.7 0.00 0.00 0.00 67 1007.8
20260505200534 29 199 8.0 17.7 0.00 0.00 0.00 68 1007.7
20260505200048 28 196 6.4 16.1 0.00 0.00 0.00 72 1007.8
20260505195533 28 215 8.0 17.7 0.00 0.00 0.00 67 1007.8
20260505195033 28 151 6.4 17.7 0.00 0.00 0.00 70 1007.9
20260505194548 28 184 6.4 19.3 0.00 0.00 0.00 70 1008.0
20260505194035 28 118 3.2 19.3 0.00 0.00 0.00 73 1008.0
20260505193533 28 185 9.7 19.3 0.00 0.00 0.00 69 1008.0
20260505193046 28 182 6.4 19.3 0.00 0.00 0.00 71 1008.0
20260505192534 27 187 1.6 11.3 0.00 0.00 0.00 72 1008.2
20260505192034 28 224 3.2 17.7 0.00 0.00 0.00 73 1008.1
20260505191546 27 132 6.4 19.3 0.00 0.00 0.00 72 1008.3
20260505191034 27 194 9.7 19.3 0.00 0.00 0.00 73 1008.3
20260505190536 27 158 9.7 17.7 0.00 0.00 0.00 75 1008.3
20260505190043 27 145 4.8 11.3 0.00 0.00 0.00 73 1008.4
20260505185534 27 180 6.4 14.5 0.00 0.00 0.00 74 1008.6
20260505185034 27 206 4.8 14.5 0.00 0.00 0.00 77 1008.6
20260505184547 27 131 4.8 12.9 0.00 0.00 0.00 76 1008.7
20260505184035 26 67 0.0 9.7 0.00 0.00 0.00 77 1008.7
20260505183534 26 160 3.2 11.3 0.00 0.00 0.00 77 1008.7
20260505183051 27 179 4.8 12.9 0.00 0.00 0.00 76 1008.7
20260505182534 26 134 6.4 12.9 0.00 0.00 0.00 75 1008.8
20260505182033 27 176 6.4 14.5 0.00 0.00 0.00 76 1008.9
20260505181606 26 118 6.4 16.1 0.00 0.00 0.00 76 1009.0
20260505181036 26 176 4.8 16.1 0.00 0.00 0.00 77 1009.0
20260505180534 27 195 9.7 16.1 0.00 0.00 0.00 75 1008.9
20260505180059 26 227 4.8 16.1 0.00 0.00 0.00 78 1008.9
20260505175535 26 235 6.4 16.1 0.00 0.00 0.00 78 1009.0
20260505175033 26 221 8.0 16.1 0.00 0.00 0.00 77 1009.1
20260505174550 25 250 8.0 16.1 0.00 0.00 0.00 79 1009.1
20260505174034 25 226 9.7 16.1 0.00 0.00 0.00 78 1009.2
20260505173533 25 195 4.8 16.1 0.00 0.00 0.00 79 1009.2
20260505173052 25 198 8.0 14.5 0.00 0.00 0.00 79 1009.2
20260505172533 25 241 6.4 19.3 0.00 0.00 0.00 78 1009.2
20260505172034 25 178 6.4 19.3 0.00 0.00 0.00 79 1009.2
20260505171555 25 225 6.4 19.3 0.00 0.00 0.00 79 1009.2
20260505171034 25 261 3.2 19.3 0.00 0.00 0.00 81 1009.2
20260505170534 25 210 8.0 19.3 0.00 0.00 0.00 82 1009.2
20260505170046 25 204 8.0 19.3 0.00 0.00 0.00 82 1009.3
20260505165535 24 183 8.0 19.3 0.00 0.00 0.00 84 1009.3
20260505165033 24 223 9.7 19.3 0.00 0.00 0.00 83 1009.3
20260505164548 24 200 9.7 17.7 0.00 0.00 0.00 83 1009.3
20260505164031 24 193 12.9 20.9 0.00 0.00 0.00 83 1009.1
20260505163532 24 222 11.3 20.9 0.00 0.00 0.00 84 1009.1
20260505163046 23 186 6.4 17.7 0.00 0.00 0.00 86 1009.2
20260505162538 23 218 9.7 22.5 0.00 0.00 0.00 85 1009.3
20260505162034 23 234 8.0 22.5 0.00 0.00 0.00 86 1009.3
20260505161550 23 234 9.7 22.5 0.00 0.00 0.00 85 1009.4
20260505161035 23 172 6.4 17.7 0.00 0.00 0.00 86 1009.2
20260505160531 23 182 9.7 17.7 0.00 0.00 0.00 87 1009.3
20260505153047 21 197 8.0 14.5 0.00 0.00 0.00 94 1009.4
20260505152532 21 197 4.8 11.3 0.00 0.00 0.00 94 1009.6
20260505152032 21 229 3.2 11.3 0.00 0.00 0.00 94 1009.6
20260505151543 21 192 1.6 9.7 0.00 0.00 0.00 94 1009.5
20260505151031 21 0 3.2 9.7 0.00 0.00 0.00 95 1009.4
20260505150531 21 198 1.6 11.3 0.00 0.00 0.00 94 1009.4
20260505140531 20 182 4.8 11.3 0.00 0.00 0.00 94 1009.3